SL-12 DEB, 25798

Orbit data source: Space-Track

SL-12 DEB, 25798 is space debris in HEO originally from a launch on Tue, 10 Jan 1989 UTC launched from the Tyuratam Missile And Space Complex (TTMTR). Debris objects in space refer to the collection of defunct objects orbiting the Earth. Examples of debris include non-operational satellites, rocket bodies, and fragments generated from explosions, collisions, or faulty payload assembly.

Loading next visibility...
Identifier
25798, 1989-001K
Orbit
HEO
Country
Flag of CISCIS
Related business
Manufacturer
Unknown
Mission
Spacecraft
Bus & Motor
Unknown
Mass
Unknown
Launch date (UTC)
1989-01-10 (38 years ago)
Launch vehicle
Unknown
Launch site
Tyuratam Missile And Space Complex (TTMTR)
Object type
Payload
Rocket body
Debris
Shape & HBR
Unknown shape, 0.5 m
Radar Cross Section
Medium (>0.1 m² and <1 m²)

Expand to show TLE details & history
Last TLE update: 1 day ago

TLE from 1 day ago
0 SL-12 DEB
1 25798U 89001K   26253.24837736  .00012473  00000-0  34942-1 0  9997
2 25798  65.1630 335.6494 4474513 217.6198 256.4526  6.11090195 16818
Epoch: 2026-09-10T05:57Z
TLE epoch observation values (Epoch: 2026-09-10T05:57:39.803Z)
Latitude
60.54484°
Longitude
-48.24471°
Altitude
9,481.881 km
Speed
4.332 km/s
True Right ascension
02h 01m 50s
True Declination
60° 28' 43"
Sunlit
Object was in daylight at epoch
Visualization orbit readout
Latitude
Unknown
Longitude
Unknown
Altitude
Unknown
Speed
Unknown
Apparent Right ascension
Unknown
Apparent Declination
Unknown
Sunlit
N/A
Visualization observer readout
Local Sidereal Time
04:28:23
Azimuth
Unknown
Elevation
Unknown
Doppler factor
Unknown
Orbital elements
Apogee altitude
11,912.54 km
Perigee altitude
604.129 km
Semi-major axis
12,636.472 km
Eccentricity
0.44745
Inclination
65.163°
RAAN
335.6494°
Arg. of periapsis
217.6198°
True anomaly
215.91537°
Mean anomaly
256.4526°
Eccentric anomaly
235.35997°
Mean motion
1.52793 °/min
Orbital period
235.61 mins
BSTAR
0.034942
Loading maneuver chart data...
Computing Atmospheric mass density...

Documentation

Showing up to 5 results
|